Location: *
(44.9308°N, 123.0197°W)
Time: 22:18:04
(UTC+00:00)

Cosmos 1805 - Pass Details

Date: 09 April 2020
Orbit: 525 x 531 km, 82.5° (Epoch: 02 June)

Event Time Altitude Azimuth Distance (km) Brightness Sun altitude
Rises 12:49:22 0° 351° (N) 2,674 7.0 -8.9°
Reaches altitude 10° 12:51:32 10° 352° (N) 1,779 6.1 -8.6°
Maximum altitude 12:55:26 87° 84° (E) 533 3.3 -7.9°
Drops below altitude 10° 12:59:19 10° 172° (S) 1,762 5.8 -7.3°
Sets 13:01:26 0° 172° (S) 2,646 6.7 -6.9°
